{"data":{"norad_id":45150,"intl_designator":"2020-008V","name":"ONEWEB-0044","alt_names":[],"object_type":"PAYLOAD","status":"ACTIVE","operator":null,"country":"UK","launch_date":"2020-02-06","launch_site_code":"TYMSC","launch_vehicle":null,"mission":null,"orbit_class":"UNKNOWN","rcs_meters":null,"size_class":null,"mass_kg":null,"dimensions":null,"purposes":["comms"],"wikipedia_slug":null,"has_3d_model":false,"image_url":null,"decayed_at":null,"tle_current":{"epoch":"2026-09-20T03:28:14.068128Z","epoch_age_seconds":45066,"freshness":"FRESH","line1":"1 45150U 20008V   26263.14460727  .00000336  00000+0  92551-3 0  9991","line2":"2 45150  87.8903  17.3667 0001867 103.2232 256.9104 13.10375559320918","mean_motion":13.10375559,"eccentricity":0.0001867,"inclination_deg":87.8903,"raan_deg":17.3667,"arg_perigee_deg":103.2232,"mean_anomaly_deg":256.9104,"bstar":0.00092551,"rev_number":32091,"period_min":109.89215954996,"perigee_km":1220.2876580352,"apogee_km":1223.1254396164,"semimajor_km":7599.8435488258,"source":"CELESTRAK","updated_at":"2026-09-20T09:00:44.548641Z"}}}